sat.trackr.live / text

‹ back to catalog

STARLINK-37146

NORAD 68555 · 2026-070P

PAYLOAD ACTIVE UNKNOWN

§ Identity

Operator
Country
US
Launch date
2026-04-02
Launch site
AFETR
Launch vehicle
Mass (kg)
RCS (m²)

Purposes: comms

External: N2YO · Heavens-Above · Gunter

§ Orbital elements

Epoch: 2026-05-24T23:48:20.121120Z

Period
93.85 min
Inclination
53.1602°
Eccentricity
0.0000522
Mean motion
15.34379922 rev/d
Perigee alt
462.4 km
Apogee alt
463.1 km
Semi-major
6,840.9 km
B*
1.1897e-3
RAAN
7.6835°
Arg perigee
112.2886°
Mean anomaly
247.8172°
Rev number
824

§ Raw data

STARLINK-371461 68555U 26070P   26144.99189955  .00040009  00000+0  11897-2 0  99962 68555  53.1602   7.6835 0000522 112.2886 247.8172 15.34379922  8244

JSON: /api/v1/satellites/68555 · /tle

For live sub-satellite position, see the globe view (requires WebGL).

§ Visibility from observer

Set your observer location to see the next 7 days of passes ≥ 10°. The values pass through the URL so the page stays shareable.

No JS? Fill the form by hand. The geolocation button needs JavaScript.